Regional Weather Roundup
Issued by NWS Cleveland, OH

Current Version | Previous Version | Text Only | Print | Product List | Glossary On
Versions: 1 2 3 4 5 6 7 8 9 10 11 12 13 14 15 16 17 18 19 20 21 22 23 24 25 26 27 28 29 30 31 32 33 34 35 36 37 38 39 40 41 42 43 44 45 46 47 48 49 50
000 ASUS41 KCLE 252302 RWRCLE OHIO REGIONAL WEATHER ROUNDUP NATIONAL WEATHER SERVICE CLEVELAND, OH 700 PM EDT SAT OCT 25 2014 NOTE: "FAIR" INDICATES FEW OR NO CLOUDS BELOW 12,000 FEET WITH NO SIGNIFICANT WEATHER AND/OR OBSTRUCTIONS TO VISIBILITY. OHZ001>008-015>018-024>027-034-035-043-044-260000- NORTHWEST OHIO CITY SKY/WX TMP DP RH WIND PRES REMARKS DEFIANCE CLEAR 64 31 28 W7G17 29.84S FINDLAY CLEAR 63 43 48 W14 29.82S HAZE TOLEDO EXPRESS CLEAR 63 28 26 W16G23 29.81R TOLEDO EXEC CLEAR 64 31 28 W21G26 29.80R LIMA CLEAR 64 44 48 W13 29.86S $$ OHZ009>014-019>023-028>033-038-089-260000- NORTHEAST OHIO CITY SKY/WX TMP DP RH WIND PRES REMARKS CLE-HOPKINS CLEAR 64 44 48 W13 29.78R CLE-LAKEFRONT CLEAR 60 51 72 W13 29.74F CUY CO. ARPT CLEAR 63 52 67 W16 29.76R LORAIN-ELYRIA LGT RAIN 64 41 42 W14G24 29.77S ASHTABULA CLEAR 61 48 62 W15G26 29.73S AKRON-CANTON CLEAR 66 45 46 W12 29.77R WOOSTER CLEAR 65 45 48 W12 29.78S MANSFIELD CLEAR 64 37 36 W14G24 29.80F YOUNGSTOWN PTCLDY 62 50 64 NW8 29.74R $$ OHZ042-051>053-060>062-070>072-077>081-260000- SOUTHWEST OHIO CITY SKY/WX TMP DP RH WIND PRES REMARKS CINC-COVINGTON PTCLDY 70 51 51 W6 29.92F CINC-LUNKEN CLEAR 65 52 62 SW7 29.91F HAMILTON CLEAR 65 54 67 W3 29.91S DAYTON PTCLDY 69 47 45 W12 29.89S WRIGHT-PAT AFB CLEAR 68 49 51 W9 29.87S DAYTON GENERAL CLEAR 70 50 49 W7 29.89S WILMINGTON CLEAR 65 52 62 SW9 29.89S $$ OHZ036-037-039>041-045>050-054>059-063>069-073>076-082>088-260000- CENTRAL AND SOUTHEAST OHIO CITY SKY/WX TMP DP RH WIND PRES REMARKS COLUMBUS CLEAR 68 48 48 W9 29.83S OSU AIRPORT CLEAR 67 47 48 W10 29.84R BOLTON FIELD NOT AVBL RICKENBACK AFB CLEAR 65 54 68 SW9 29.84S NEWARK CLEAR 65 53 65 SW8 29.82S MARION CLEAR 65 44 46 NW8 29.83S LANCASTER CLEAR 67 53 61 SW9 29.85S ZANESVILLE CLEAR 66 52 60 SW8 29.81F NEW PHILLY CLEAR 67 53 61 W6 29.78S $$

USA.gov is the U.S. government's official web portal to all federal, state and local government web resources and services.